(499732) = 2011 BT25 = 2016 GR55

Discovered at Mount Lemmon on 2011-01-23 by Mt. Lemmon Survey.

Orbit

Orbit type: Main Belt

Note: WebGL enabled browser required.

epoch2024-03-31.0
epoch JD2460400.5
perihelion date2025-05-11.37608
perihelion JD2460806.87608
argument of perihelion (°)220.61262
ascending node (°)24.65251
inclination (°)1.24517
eccentricity0.1112508
perihelion distance (AU)2.3504132
Tisserand w.r.t. Jupiter3.4
ΔV w.r.t. Earth (km/sec)9.6
semimajor axis (AU)2.6446304
mean anomaly (°)266.87109
mean daily motion (°/day)0.22916930
aphelion distance (AU)2.939
period (years)4.3
P-vector [x]-0.41848403
P-vector [y]-0.82755162
P-vector [z]-0.37420507
Q-vector [x]0.90817892
Q-vector [y]-0.37718146
Q-vector [z]-0.18150810
absolute magnitude17.47
phase slope0.15
uncertainty0
referenceMPEC 2024-C82
observations used217
oppositions15
arc length (days)8533
first opposition used2000
last opposition used2024
residual rms (arc-secs)0.86
perturbers coarse indicatorM-v
perturbers precise indicator003Ek
first observation date used2000-09-27.0
last observation date used2024-02-07.0
computer nameMPCLINUX
JD of orbit computation2458018.299783
perihelion JD uncertainty (days)1.0879E-04
argument of perihelion uncertainty (°)1.2515E-04
ascending node uncertainty (°)1.2217E-04
inclination uncertainty (°)4.2159E-06
eccentricity uncertainty 3.1060E-08
perihelion distance uncertainty (AU)7.4344E-08
Minimum Orbit Intersection Distances (in AU)
for orbit epoch: 2460200.5, reference: E2024-C82
Mercury1.88574
Venus1.62562
Earth1.33661
Mars0.7946
Jupiter2.06946
Saturn6.13448
Uranus15.8155
Neptune26.9393

Observations

225 total observations over interval: 2000 09 27.27955 – 2024 02 07.328921
These data are available for download (format description).

Date (UT) J2000 RA J2000 Dec Magn Location Ref
2000 09 27.27955 23 46 14.33 -02 25 43.2 21.7 V 691 – Steward Observatory, Kitt Peak-Spacewatch MPS 835540
2000 09 27.30033 23 46 13.28 -02 25 49.1 21.7 V 691 – Steward Observatory, Kitt Peak-Spacewatch MPS 835540
2000 09 27.32113 23 46 12.19 -02 25 55.5 22.0 V 691 – Steward Observatory, Kitt Peak-Spacewatch MPS 835540
2003 04 29.16527 11 53 14.97 +01 08 30.9 22.6 V 691 – Steward Observatory, Kitt Peak-Spacewatch MPS 835540
2003 04 29.19297 11 53 14.38 +01 08 33.9 22.0 V 691 – Steward Observatory, Kitt Peak-Spacewatch MPS 835540
2003 04 29.22046 11 53 13.77 +01 08 36.2 22.4 V 691 – Steward Observatory, Kitt Peak-Spacewatch MPS 835540
2003 05 06.15649 11 51 29.18 +01 15 16.7 21.8 V 291 – LPL/Spacewatch II MPS 835540
2003 05 06.17942 11 51 28.87 +01 15 17.5 21.9 V 291 – LPL/Spacewatch II MPS 835540
2003 05 06.20239 11 51 28.65 +01 15 17.6 22.0 V 291 – LPL/Spacewatch II MPS 835540
2005 11 21.14091 03 46 44.24 +21 00 05.7 21.3 V 691 – Steward Observatory, Kitt Peak-Spacewatch MPS 815539
2005 11 21.15826 03 46 43.16 +21 00 02.9 21.2 V 691 – Steward Observatory, Kitt Peak-Spacewatch MPS 815539
2005 11 21.17563 03 46 42.13 +21 00 00.1 21.6 V 691 – Steward Observatory, Kitt Peak-Spacewatch MPS 815539
2007 02 23.18236 10 00 35.71 +13 54 38.9 21.3 V 691 – Steward Observatory, Kitt Peak-Spacewatch MPS 815539
2007 02 23.20345 10 00 34.52 +13 54 44.9 21.1 V 691 – Steward Observatory, Kitt Peak-Spacewatch MPS 815539
2007 02 23.22455 10 00 33.28 +13 54 51.4 21.5 V 691 – Steward Observatory, Kitt Peak-Spacewatch MPS 815539
2009 10 21.37852 02 08 27.99 +13 14 41.5 21.0 V G96 – Mt. Lemmon Survey MPS 815539
2009 10 21.38789 02 08 27.45 +13 14 39.6 21.4 V G96 – Mt. Lemmon Survey MPS 815539
2009 10 21.39720 02 08 26.88 +13 14 36.6 21.0 V G96 – Mt. Lemmon Survey MPS 815539
2009 10 21.40660 02 08 26.34 +13 14 33.8 21.3 V G96 – Mt. Lemmon Survey MPS 815539
2011 01 23.23587 07 59 04.20 +22 34 47.7 21.3 V G96 – Mt. Lemmon Survey MPS 368664
2011 01 23.24263 07 59 03.80 +22 34 48.5 21.9 V G96 – Mt. Lemmon Survey MPS 368664
2011 01 23.24956 07 59 03.30 +22 34 49.2 21.3 V G96 – Mt. Lemmon Survey MPS 368664
2011 01 23.25642 07 59 02.90 +22 34 51.0 21.5 V G96 – Mt. Lemmon Survey MPS 368664
2011 01 29.19604 07 53 10.14 +22 49 57.5 21.6 V G96 – Mt. Lemmon Survey MPS 368664
2011 01 29.20299 07 53 09.70 +22 49 58.2 21.0 V G96 – Mt. Lemmon Survey MPS 368664
2011 01 29.20998 07 53 09.31 +22 49 59.4 21.4 V G96 – Mt. Lemmon Survey MPS 368664
2011 01 29.21701 07 53 08.88 +22 50 00.4 21.5 V G96 – Mt. Lemmon Survey MPS 368664
2011 01 30.29328 07 52 06.841 +22 52 31.30 21.8 w F51 – Pan-STARRS 1, Haleakala MPS 378790
2011 01 30.30779 07 52 05.980 +22 52 33.37 21.6 w F51 – Pan-STARRS 1, Haleakala MPS 378790
2011 01 30.32288 07 52 05.092 +22 52 35.52 21.5 w F51 – Pan-STARRS 1, Haleakala MPS 378790
2011 01 30.33725 07 52 04.243 +22 52 37.57 21.4 w F51 – Pan-STARRS 1, Haleakala MPS 378790
2012 05 15.41643 15 50 19.575 -21 19 22.20 19.9 r F51 – Pan-STARRS 1, Haleakala MPS 815539
2012 05 15.42674 15 50 18.982 -21 19 20.86 20.6 g F51 – Pan-STARRS 1, Haleakala MPS 815539
2012 05 15.43689 15 50 18.392 -21 19 19.41 20.4 g F51 – Pan-STARRS 1, Haleakala MPS 815539
2013 09 09.46995 00 36 29.284 +03 06 31.82 21.3 w F51 – Pan-STARRS 1, Haleakala MPS 815539
2013 09 09.48467 00 36 28.621 +03 06 28.13 21.3 w F51 – Pan-STARRS 1, Haleakala MPS 815539
2013 09 09.49940 00 36 27.967 +03 06 24.36 21.2 w F51 – Pan-STARRS 1, Haleakala MPS 815539
2013 10 02.36690 00 17 43.08 +01 14 36.7 20.9 V G96 – Mt. Lemmon Survey MPS 815539
2013 10 02.37067 00 17 42.90 +01 14 35.8 20.9 V G96 – Mt. Lemmon Survey MPS 815539
2013 10 02.37444 00 17 42.67 +01 14 34.0 20.7 V G96 – Mt. Lemmon Survey MPS 815539
2013 10 02.37830 00 17 42.46 +01 14 33.1 20.9 V G96 – Mt. Lemmon Survey MPS 815539
2013 10 09.20091 00 12 04.69 +00 41 24.8 21.0 V G96 – Mt. Lemmon Survey MPS 815539
2013 10 09.20753 00 12 04.47 +00 41 24.0 20.4 V G96 – Mt. Lemmon Survey MPS 815539
2013 10 09.21416 00 12 04.07 +00 41 21.8 20.9 V G96 – Mt. Lemmon Survey MPS 815539
2013 10 09.22083 00 12 03.77 +00 41 19.6 20.3 V G96 – Mt. Lemmon Survey MPS 815539
2016 03 04.53317 13 19 34.799 -07 46 27.29 21.1 w F51 – Pan-STARRS 1, Haleakala MPS 699085
2016 03 04.54555 13 19 34.523 -07 46 26.01 21.0 w F51 – Pan-STARRS 1, Haleakala MPS 699085
2016 03 04.55784 13 19 34.241 -07 46 24.81 21.3 w F51 – Pan-STARRS 1, Haleakala MPS 699085
2016 03 04.57020 13 19 33.972 -07 46 23.39 21.6 w F51 – Pan-STARRS 1, Haleakala MPS 699085
2016 03 11.52325 13 16 32.202 -07 30 50.49 20.9 w F51 – Pan-STARRS 1, Haleakala MPS 699085
2016 03 11.53450 13 16 31.825 -07 30 48.60 21.1 w F51 – Pan-STARRS 1, Haleakala MPS 699085
2016 03 11.54575 13 16 31.446 -07 30 46.80 21.3 w F51 – Pan-STARRS 1, Haleakala MPS 699085
2016 03 11.55698 13 16 31.067 -07 30 44.86 21.1 w F51 – Pan-STARRS 1, Haleakala MPS 699085
2016 03 18.40645 13 12 24.03 -07 08 54.9 20.6 V G96 – Mt. Lemmon Survey MPS 699085
2016 03 18.41156 13 12 23.80 -07 08 54.2 20.6 V G96 – Mt. Lemmon Survey MPS 699085
2016 03 18.41666 13 12 23.60 -07 08 53.0 20.7 V G96 – Mt. Lemmon Survey MPS 699085
2016 03 18.42177 13 12 23.40 -07 08 51.9 20.2 V G96 – Mt. Lemmon Survey MPS 699085
2016 03 28.38623 13 04 51.32 -06 28 00.0 20.6 V G96 – Mt. Lemmon Survey MPS 699085
2016 03 28.39253 13 04 51.02 -06 27 59.0 21.0 V G96 – Mt. Lemmon Survey MPS 699085
2016 03 28.39883 13 04 50.66 -06 27 56.7 20.5 V G96 – Mt. Lemmon Survey MPS 699085
2016 03 28.40512 13 04 50.35 -06 27 54.6 20.8 V G96 – Mt. Lemmon Survey MPS 699085
2016 04 01.37261 13 01 30.222 -06 09 35.25 20.2 w F51 – Pan-STARRS 1, Haleakala MPS 699085
2016 04 01.38492 13 01 29.559 -06 09 31.79 20.1 w F51 – Pan-STARRS 1, Haleakala MPS 699085
2016 04 01.39722 13 01 28.900 -06 09 28.35 20.3 w F51 – Pan-STARRS 1, Haleakala MPS 699085
2016 04 01.40958 13 01 28.236 -06 09 24.94 20.6 w F51 – Pan-STARRS 1, Haleakala MPS 699085
2016 04 01.41140 13 01 28.137 -06 09 24.36 20.6 w F51 – Pan-STARRS 1, Haleakala MPS 699085
2016 04 01.42480 13 01 27.420 -06 09 20.59 20.3 w F51 – Pan-STARRS 1, Haleakala MPS 699085
2016 04 01.43823 13 01 26.689 -06 09 16.85 20.2 w F51 – Pan-STARRS 1, Haleakala MPS 699085
2016 04 01.45172 13 01 25.967 -06 09 12.93 20.3 w F51 – Pan-STARRS 1, Haleakala MPS 699085
2016 04 02.41313 13 00 36.439 -06 04 40.44 20.2 w F51 – Pan-STARRS 1, Haleakala MPS 699085
2016 04 02.42505 13 00 35.796 -06 04 36.98 20.4 w F51 – Pan-STARRS 1, Haleakala MPS 699085
2016 04 02.43701 13 00 35.143 -06 04 33.62 20.5 w F51 – Pan-STARRS 1, Haleakala MPS 699085
2016 04 02.44897 13 00 34.504 -06 04 30.15 20.5 w F51 – Pan-STARRS 1, Haleakala MPS 699085
2016 04 03.28365 12 59 51.28 -06 00 32.8 19.9 V 691 – Steward Observatory, Kitt Peak-Spacewatch MPS 699085
2016 04 03.28945 12 59 50.95 -06 00 31.2 20.2 V 691 – Steward Observatory, Kitt Peak-Spacewatch MPS 699085
2016 04 03.29523 12 59 50.64 -06 00 29.5 20.2 V 691 – Steward Observatory, Kitt Peak-Spacewatch MPS 699085
2016 04 10.35410 12 53 42.480 -05 26 39.56 20.4 w F51 – Pan-STARRS 1, Haleakala MPS 701224
2016 04 10.36702 12 53 41.785 -05 26 35.91 20.5 w F51 – Pan-STARRS 1, Haleakala MPS 701224
2016 04 10.38016 12 53 41.080 -05 26 32.22 20.6 w F51 – Pan-STARRS 1, Haleakala MPS 701224
2016 04 10.39334 12 53 40.367 -05 26 28.54 20.2 w F51 – Pan-STARRS 1, Haleakala MPS 701224
2016 04 14.22761 12 50 24.99 -05 08 32.7 20.8 V G96 – Mt. Lemmon Survey MPS 701224
2016 04 14.23451 12 50 24.64 -05 08 31.3 20.1 V G96 – Mt. Lemmon Survey MPS 701224
2016 04 14.24142 12 50 24.28 -05 08 29.7 20.5 V G96 – Mt. Lemmon Survey MPS 701224
2016 04 14.24832 12 50 23.94 -05 08 27.1 20.7 V G96 – Mt. Lemmon Survey MPS 701224
2016 04 26.20638 12 41 22.67 -04 19 16.9 20.7 V G96 – Mt. Lemmon Survey MPS 704538
2016 04 26.21046 12 41 22.52 -04 19 16.2 21.1 V G96 – Mt. Lemmon Survey MPS 704538
2016 04 26.21455 12 41 22.42 -04 19 15.5 20.5 V G96 – Mt. Lemmon Survey MPS 704538
2016 04 26.21863 12 41 22.15 -04 19 14.7 20.7 V G96 – Mt. Lemmon Survey MPS 704538
2016 06 05.15166 12 35 14.26 -04 02 27.2 22.0 V G96 – Mt. Lemmon Survey MPS 713873
2016 06 05.15734 12 35 14.36 -04 02 27.8 21.3 V G96 – Mt. Lemmon Survey MPS 713873
2016 06 05.16879 12 35 14.68 -04 02 29.0 22.3 V G96 – Mt. Lemmon Survey MPS 713873
